Regional Weather Roundup
Issued by NWS Midland/Odessa, TX

Skip options and go directly to product.
Home | Oldest Version | Previous Version | Current Version | All | Text Only | Save Text | Print | Product List | Glossary Off

Skip product version selection by date and time.   

705
ASUS44 KMAF 050410
RWRMAF
MIDLAND AREA WEATHER ROUNDUP
NATIONAL WEATHER SERVICE MIDLAND TX
1000 PM CST WED MAR 04 2015

...IN SOUTHWEST TEXAS AND SOUTHEAST NEW MEXICO...

CITY           SKY/WX    TMP DP  RH WIND       PRES   REMARKS
ALPINE         CLOUDY    31  30  98 NE14      30.27R WCI  20
ANDREWS        CLOUDY    24  20  86 NE18      30.32R WCI  10
ARTESIA        CLOUDY    28  21  74 NE12      30.34R WCI  18
BIG SPRING     CLOUDY    26  21  82 N16G25    30.35R WCI  13
CARLSBAD       CLOUDY    30  24  78 E9        30.32R WCI  22
DRYDEN           N/A     37  33  85 N17G24    30.23R WCI  27
FORT STOCKTON  FLURRIES  28  26  92 NE16      30.30R WCI  16
GUAD PASS      NOT AVBL
HOBBS          CLOUDY    25  25 100 NE17G28   30.31R WCI  11
MARFA          MOCLDY    30  27  86 N21       30.17R WCI  17
MIDLAND AIRPK  CLOUDY    26  22  85 NE16G22   30.33R WCI  14
MIDLAND INTL   CLOUDY    25  20  81 NE22G30   30.32R WCI  10
ODESSA         CLOUDY    25  20  81 NE18      30.32R WCI  11
PECOS          FLURRIES  30  27  90 NE10      30.35R WCI  21
PRESIDIO       CLOUDY    52  36  55 N26G37    30.09R
SEMINOLE       CLOUDY    24  19  80 NE16G24   30.34R WCI  11
SNYDER         CLOUDY    23  19  87 N17       30.34R WCI   9
WINK           CLOUDY    29  21  72 NE14      30.31R WCI  18
$$
...OTHER STATIONS IN TEXAS...

CITY           SKY/WX    TMP DP  RH WIND       PRES   REMARKS
ABILENE        CLOUDY    24  21  88 N21G29    30.34R WCI   9
AMARILLO       CLOUDY    22  16  78 N12       30.36R WCI  10
AUSTIN         CLOUDY    36  36 100 N24       30.16R WCI  24
BROWNSVILLE    CLOUDY    73  70  90 SE7       29.84S
CORPUS CHRISTI CLOUDY    69  66  90 E7        29.87R
DALLAS FTW     FRZ RAIN  29  26  89 N24G30    30.29R WCI  15
DEL RIO        RAIN      40  36  86 NW14G28   30.19R FOG     WCI  32
EL PASO        PTCLDY    49  33  54 E6        30.11R
HOUSTON INT    CLOUDY    49  46  90 N18G24    29.99R
LUBBOCK        FLURRIES  22  18  85 NE17G25   30.33R WCI   8
SAN ANGELO     MIX PCPN  29  25  85 N15G24    30.30R WCI  18
SAN ANTONIO    CLOUDY    38  33  82 N17G33    30.09R WCI  28
WACO           LGT SNOW  32  30  92 N24G33    30.23R FOG     WCI  19
WICHITA FALLS  NOT AVBL
$$
...OTHER LOCATIONS IN NEW MEXICO...

CITY           SKY/WX    TMP DP  RH WIND       PRES   REMARKS
ALAMAGORDO     CLEAR     39  34  81 S6        30.11R WCI  35
ALBUQUERQUE    PTCLDY    39  13  34 N10G21    30.17R WCI  32
CANNON AFB     FLURRIES  21  17  84 NE10      30.32R WCI  10
CLOVIS         CLOUDY    21  16  79 NE14      30.32R WCI   8
HOLLOMAN AFB   CLEAR     42  34  71 S10       30.09R WCI  36
ROSWELL        CLOUDY    28  21  75 NE12      30.33R WCI  18
RUIDOSO        FOG       18  18 100 SE8       30.19R VSB<1/4 WCI   7
SANTA FE       MOCLDY    24  17  74 SE15      30.17R WCI  11
TRUTH OR CONSE CLEAR     46  19  34 NW10      30.10R
TUCUMCARI      FLURRIES  23  16  74 NE10      30.35R WCI  12
$$

USA.gov is the U.S. government's official web portal to all federal, state and local government web resources and services.